Regional Weather Roundup
Issued by NWS

Home | Current Version | Previous Version | Graphics & Text | Print | Product List | Glossary On
Versions: 1 2 3 4 5 6 7 8 9 10 11 12 13 14 15 16 17 18 19 20 21 22 23 24 25 26 27 28 29 30 31 32 33 34 35 36 37 38 39 40 41 42 43 44 45 46 47 48 49 50
000
ASUS43 KIND 280659
RWRIN

WEATHER ROUNDUP FOR INDIANA
NATIONAL WEATHER SERVICE INDIANAPOLIS IN
300 AM EDT TUE JUL 28 2015

NOTE: "FAIR" INDICATES FEW OR NO CLOUDS BELOW 12,000 FEET WITH NO
SIGNIFICANT WEATHER AND/OR OBSTRUCTIONS TO VISIBILITY.

* - STATION DOES NOT REPORT WEATHER SUCH AS PRECIPITATION OR FOG.

+ - STATION NOT QUALITY CONTROLLED BY THE NATIONAL WEATHER SERVICE.
    USE DATA WITH CAUTION...ESPECIALLY DEWPOINT AND RELATIVE
    HUMIDITY OBSERVATIONS.

INZ001>003-010>013-019-020-280800-
NORTHWEST INDIANA

CITY           SKY/WX    TMP DP  RH WIND       PRES   REMARKS
KNOX *+        MOCLDY    68  63  83 E3        29.99S
MONTICELLO +   MOCLDY    71  66  83 NE6       29.98S

$$

LMZ046-743>745-280800-
SOUTHERN LAKE MICHIGAN

STATION/POSITION TIME  TEMP    WIND        PRES    WAVE
                       AIR SEA DIR/SP/G            HT
                 (UTC) (F)     (DEG/KT/KT) (MB)    (FT)
BURNS HARBOR     0600   74     100/  9/ 11 1015.9F
MICHIGAN CITY    0600   73      80/  8/ 10   N/A
5NW MICH CITY    0600   74 75  100/  6/ 10   N/A     1

$$

INZ004-005-014>016-021>024-280800-
NORTH CENTRAL INDIANA

CITY           SKY/WX    TMP DP  RH WIND       PRES   REMARKS
GOSHEN         MOCLDY    65  62  90 NE3       30.02F
SOUTH BEND     MOCLDY    71  63  75 NE3       30.02F
WARSAW +       MOCLDY    68  63  83 E3        30.02S

$$

INZ006>009-017-018-025>027-280800-
NORTHEAST INDIANA

CITY           SKY/WX    TMP DP  RH WIND       PRES   REMARKS
ANGOLA *+      CLEAR     64  54  68 CALM      30.04S
FORT WAYNE     MOCLDY    69  63  81 E5        30.01F

$$

INZ028-029-035-036-043>045-051>053-280800-
WEST CENTRAL INDIANA

CITY           SKY/WX    TMP DP  RH WIND       PRES   REMARKS
CRAWFORDSVL +  MOCLDY    72  71  98 SE3         N/A
GREENCASTLE +  PTCLDY    72  68  88 CALM      29.98S
LAFAYETTE      MOCLDY    72  67  84 E5        29.97S
TERRE HAUTE    PTCLDY    74  72  93 CALM      29.96R

$$

INZ030>032-037>040-046>048-054>057-064-065-280800-
CENTRAL INDIANA

CITY           SKY/WX    TMP DP  RH WIND       PRES   REMARKS
GREENWOOD *+   MOCLDY    73  70  88 CALM      29.98F
INDIANAPOLIS   MOCLDY    75  70  84 SE6       29.96F
-EAGLE CREEK   PTCLDY    75  71  87 E3        29.97F
KOKOMO *+      MOCLDY    70  63  78 E6        29.99F
MT COMFORT *+  MOCLDY    72 N/A N/A CALM      29.98F
SHELBYVILLE    MOCLDY    73  70  90 E3        29.96F FOG

$$

INZ033-034-041-042-049-050-058-059-280800-
EAST CENTRAL INDIANA

CITY           SKY/WX    TMP DP  RH WIND       PRES   REMARKS
MUNCIE         PTCLDY    70  67  90 E5        29.99F

$$

INZ060-061-067>069-081>083-085>088-280800-
SOUTHWEST INDIANA

CITY           SKY/WX    TMP DP  RH WIND       PRES   REMARKS
EVANSVILLE     CLOUDY    76  72  87 CALM      29.95F
HUNTINGBURG *+ CLOUDY    77  73  88 W3        29.95F

$$

INZ062-063-066-070>080-084-089>092-280800-
SOUTH CENTRAL AND SOUTHEAST INDIANA

CITY           SKY/WX    TMP DP  RH WIND       PRES   REMARKS
BLOOMINGTON    PTCLDY    74  71  91 SE3       29.97S
MADISON *+     MOCLDY    73  72  94 E3        29.99F
SEYMOUR +        N/A     77  73  88 NE3       29.96F

$$



USA.gov is the U.S. government's official web portal to all federal, state and local government web resources and services.